Regional Weather Roundup
Issued by NWS

Home | Current Version | Previous Version | Graphics & Text | Print | Product List | Glossary Off
Versions: 1 2 3 4 5 6 7 8 9 10 11 12 13 14 15 16 17 18 19 20 21 22 23 24 25 26 27 28 29 30 31 32 33 34 35 36 37 38 39 40 41 42 43 44 45 46 47 48 49 50

000
ASUS43 KMKX 041511
RWRWI

WISCONSIN REGIONAL WEATHER ROUNDUP
NATIONAL WEATHER SERVICE MILWAUKEE/SULLIVAN WI
900 AM CST SUN DEC 04 2016

NOTE: "FAIR" INDICATES FEW OR NO CLOUDS BELOW 12,000 FEET WITH NO
SIGNIFICANT WEATHER AND/OR OBSTRUCTIONS TO VISIBILITY.

WIZ001-002-006>008-014>016-023>028-041600-
NORTHWEST WISCONSIN

CITY           SKY/WX    TMP DP  RH WIND       PRES   REMARKS
SUPERIOR ARPT  LGT SNOW  30  29  94 SE3       29.94F
ASHLAND        LGT SNOW  30  27  88 VRB5      29.98F VSB 3/4 WCI  25
HAYWARD        LGT SNOW  29  26  89 SE9       29.94F FOG     WCI  20
SIREN          LGT SNOW  31  29  93 SE10      29.91F WCI  22
CUMBERLAND     LGT SNOW  30  28  93 SE9       29.92F WCI  22
RICE LAKE      LGT SNOW  31  29  94 SE10G17   29.95F WCI  22
CHETEK         LGT SNOW  30  29  96 SE10      29.95F VSB 3/4 WCI  21
LADYSMITH      LGT SNOW  30  28  94 SE8       29.99F WCI  22
EAU CLAIRE     SNOW      31  29  92 SE7       29.96F VSB 1/2 WCI  24
MENOMONIE      LGT SNOW  32  31  98 E10       29.95F VSB 1   WCI  24
NEW RICHMOND   LGT SNOW  31  30  96 SE8       29.92F WCI  24
OSCEOLA        LGT SNOW  32  32 100 SE10      29.94F WCI  24
$$

WIZ003>005-009-010-017-018-041600-
NORTH CENTRAL WISCONSIN

CITY           SKY/WX    TMP DP  RH WIND       PRES   REMARKS
MANITOWISH WTR LGT SNOW  26  26 100 SE7       29.97F WCI  19
ARBOR VITAE    LGT SNOW  29  27  92 SE7       29.98F WCI  22
WOODRUFF       LGT SNOW  29  27  92 SE7       29.98F WCI  22
RHINELANDER    LGT SNOW  27  25  92 SE6       30.01F VSB 1   WCI  20
EAGLE RIVER    LGT SNOW  26  22  86 SE6       30.00F WCI  19
LAND O LAKES   LGT SNOW  27  24  87 S6        30.01F WCI  21
PHILLIPS       LGT SNOW  27  26  95 SE8       29.98F WCI  19
TOMAHAWK       LGT SNOW  27  24  91 SE5       30.01F WCI  21
MEDFORD        LGT SNOW  27  26  93 SE6       29.99S WCI  21
MERRILL        LGT SNOW  28  26  96 SE7       30.03F WCI  20
$$

WIZ029-030-035-036-043>047-041600-
CENTRAL WISCONSIN

CITY           SKY/WX    TMP DP  RH WIND       PRES   REMARKS
WAUSAU         LGT SNOW  28  26  92 SE8       30.03F FOG     WCI  20
MOSINEE        LGT SNOW  28  28 100 SE8       30.04F WCI  20
MARSHFIELD     LGT SNOW  29  27  92 SE8       30.00F VSB 3/4 WCI  21
STEVENS POINT  MIX PCPN  28  28 100 SE6       30.05F WCI  21
WAUPACA        LGT SNOW  32  30  92 CALM      30.08F
WAUTOMA        LGT SNOW  30  28  93 SE7       30.08F FOG     WCI  23
WISC RAPIDS    LGT SNOW  30  29  96 SE8       30.05F VSB 1   WCI  22
CAMP DOUGLAS   LGT SNOW  30  30 100 SE10      30.02F FOG     WCI  21
$$

WIZ011>013-019>022-031-037>040-048>050-041600-
NORTHEAST WISCONSIN

CITY           SKY/WX    TMP DP  RH WIND       PRES   REMARKS
ANTIGO         LGT SNOW  26  25  95 SE9       30.03F WCI  17
SHAWANO        LGT SNOW  32  29  90 SE3       30.09F
OCONTO         CLOUDY    30  28  90 CALM      30.12F
STURGEON BAY   CLOUDY    31  24  75 S6        30.13F WCI  25
GREEN BAY      LGT SNOW  31  30  96 SE7       30.11F FOG     WCI  24
MANITOWOC      MIX PCPN  31  28  89 SW3       30.13F FOG
APPLETON       LGT SNOW  30  30 100 S6        30.08F WCI  24
CLINTONVILLE   LGT SNOW  30  30 100 SE6       30.09F WCI  24
OSHKOSH        LGT SNOW  30  28  92 SE7       30.09F VSB 1   WCI  23
$$

WIZ032>034-041-042-053>061-041600-
SOUTHWEST WISCONSIN

CITY           SKY/WX    TMP DP  RH WIND       PRES   REMARKS
LA CROSSE      LGT SNOW  34  32  92 S9        30.00F FOG     WCI  27
SPARTA         LGT SNOW  31  30  96 SE6       30.01F WCI  26
VIROQUA        CLOUDY    31  31 100 SE16      29.98F VSB 3/4 WCI  20
BOSCOBEL       SNOW      33  30  88 VRB5      30.04F VSB 1/2 WCI  29
PRAIRIE DU CHI LGT SNOW  32  30  92 SE6       30.02F WCI  27
PLATTEVILLE    CLOUDY    31  31 100 SE12      30.04F VSB 3/4 WCI  21
$$

WIZ056-057-062-063-064-067-068-041600-
SOUTH CENTRAL WISCONSIN

CITY           SKY/WX    TMP DP  RH WIND       PRES   REMARKS
REEDSBURG      MIX PCPN  30  30 100 SE6       30.05F WCI  24
BARABOO/DELLS  LGT SNOW  30  29  96 S7        30.06S VSB 1   WCI  23
LONE ROCK      SNOW      31  29  92 SE10      30.07F VSB 1/2 WCI  22
MINERAL POINT  SNOW      32  32 100 SE14      30.03F VSB 1/2 WCI  22
MADISON        LGT SNOW  30  28  92 S13       30.08F VSB 1   WCI  20
MIDDLETON      CLOUDY    32  32 100 SE10      30.08F VSB 3/4 WCI  23
WATERTOWN      LGT SNOW  30  30 100 SE7       30.10S WCI  23
MONROE         LGT SNOW  30  30 100 SE8       30.07F WCI  23
JANESVILLE     LGT SNOW  32  30  93 SE10      30.09F WCI  24
$$

WIZ051-052-058>065-066-070>072-041600-
SOUTHEAST WISCONSIN

CITY           SKY/WX    TMP DP  RH WIND       PRES   REMARKS
MILWAUKEE      CLOUDY    34  26  72 CALM      30.13F
WAUKESHA       LGT SNOW  30  25  80 SE7       30.13F WCI  23
MILWAUKEE/TIMM CLOUDY    32  23  69 CALM      30.13F
RACINE         CLOUDY    33  26  75 CALM      30.14F
BURLINGTON     LGT SNOW  31  28  88 CALM      30.12S
KENOSHA        CLOUDY    33  25  72 S5        30.12F WCI  29
FOND DU LAC    LGT SNOW  31  27  85 S8        30.10F FOG     WCI  23
SHEBOYGAN      CLOUDY    31  27  85 CALM      30.12F
WEST BEND      CLOUDY    32  28  86 CALM      30.11F
JUNEAU         LGT SNOW  29  28  96 SE9       30.10F WCI  21
$$

LSZ147-162-041600-
LAKE SUPERIOR

STATION/POSITION TIME  TEMP    WIND        PRES    WAVE
                       AIR SEA DIR/SP/G            HT/PER
                 (UTC) (F)     (DEG/KT/KT) (MB)    (FT/S)
DEVILS ISLAND    1500   32     160/  8/ 11 1016.2F
PORT WING        1440   31     140/  4/  8 1014.9F
SAXON HARBOR     1440   31     180/  3/  8 1015.6F
$$

LMZ867-665-643>646-041600-
LAKE MICHIGAN

STATION/POSITION TIME  TEMP    WIND        PRES    WAVE
                       AIR SEA DIR/SP/G            HT/PER
                 (UTC) (F)     (DEG/KT/KT) (MB)    (FT/S)
CHAMBERS ISLAND  1440   33     210/  2/  8 1020.0F
NORTHPORT PIER   1440   33     170/  2/  5 1020.7F
SISTER BAY       1438   32     200/  8/ 10   N/A
ALGOMA LAKESHORE 1451          230/  9/ 11   N/A
KEWAUNEE LAKESHO 1448   30     220/  5/  7 1020.0F
SHEBOYGAN LAKESH 1500   33     220/  6/  7 1020.6F
PORT WASHINGTON  1440   34     220/  2/  6 1021.3F
MILWAUKEE LAKESH 1450   35     180/  5/  6   N/A
S MID LAKE BUOY  1450   38 48  140/  6/ 10 1021.0F   0
KENOSHA   LAKESH 1500   34     220/  3/  4 1020.3
$$

TC  - TEMPERATURE IN CELSIUS
VSB - VISIBILITY IN STATUTE MILES
WCI - WIND CHILL INDEX
HX  - HEAT INDEX




USA.gov is the U.S. government's official web portal to all federal, state and local government web resources and services.